Home   Weather   Seattle   Past weeks
Flag for USA

Past Weather in Seattle, Washington, USA — Yesterday and Last 2 Weeks

Now
53 °F

Partly sunny.


Feels Like: 50 °F
Forecast: 48 / 42 °F
Wind: 10 mph from Southwest

Location: Seattle Boeing Field

Current Time: Mar 29, 2020 at 6:35:00 pm

Latest Report: Mar 29, 2020 at 5:53 pm


Visibility: 10 mi

Pressure: 29.84 "Hg

Humidity: 55%

Dew Point: 37 °F

Location of SeattleLocation

Past Weather in Seattle — Graph

°F

Seattle Temperature Yesterday

Maximum temperature yesterday: 55 °F (at 3:53 pm)
Minimum temperature yesterday: 46 °F (at 6:53 am)
Average temperature yesterday: 50 °F

High & Low Weather Summary for the Past Weeks

 TemperatureHumidityPressure
High61 °F (Mar 20, 3:53 pm)93% (Mar 20, 7:53 am)30.32 "Hg (Mar 20, 7:53 am)
Low30 °F (Mar 17, 4:53 am)33% (Mar 15, 3:53 pm)29.78 "Hg (Mar 17, 6:53 pm)
Average45 °F70%30.03 "Hg
* Reported Mar 14 4:53 pm — Mar 29 4:53 pm, Seattle. Weather by CustomWeather, © 2020

Note: Actual official high and low records may vary slightly from our data, if they occured in-between our weather recording intervals... More about our weather records

Seattle Weather History for the Previous 24 Hours

Scroll right to see more
 ConditionsComfort  
Time TempWeatherWind HumidityBarometerVisibility
4:53 pm
Sun, Mar 29
54 °FBroken clouds.10 mph51%29.85 "Hg10 mi
3:53 pm55 °FScattered clouds.10 mph49%29.86 "Hg10 mi
2:53 pm54 °FBroken clouds.13 mph57%29.87 "Hg10 mi
1:53 pm53 °FBroken clouds.8 mph64%29.88 "Hg10 mi
12:53 pm52 °FBroken clouds.9 mph66%29.88 "Hg10 mi
11:53 am52 °FPartly sunny.7 mph72%29.89 "Hg10 mi
10:53 am50 °FBroken clouds.13 mph74%29.89 "Hg10 mi
9:53 am50 °FBroken clouds.12 mph80%29.88 "Hg10 mi
8:53 am47 °FBroken clouds.14 mph86%29.87 "Hg10 mi
7:53 am47 °FMostly cloudy.12 mph86%29.86 "Hg10 mi
6:53 am47 °FMostly cloudy.9 mph86%29.85 "Hg10 mi
5:53 am46 °FLight rain. Mostly cloudy.9 mph89%29.84 "Hg10 mi
4:53 am47 °FLight rain. Mostly cloudy.9 mph86%29.84 "Hg10 mi
3:53 am47 °FOvercast.9 mph86%29.84 "Hg10 mi
2:53 am48 °FLight rain. Overcast.8 mph89%29.84 "Hg10 mi
1:53 am48 °FLight rain. Fog.7 mph93%29.84 "Hg6 mi
12:53 am49 °FLight rain. Mostly cloudy.7 mph90%29.85 "Hg10 mi
11:53 pm
Sat, Mar 28
49 °FLight rain. Mostly cloudy.12 mph86%29.85 "Hg7 mi
10:53 pm49 °FLight rain. Mostly cloudy.8 mph86%29.86 "Hg10 mi
9:53 pm49 °FLight rain. Fog.No wind93%29.88 "Hg5 mi
8:53 pm51 °FLight rain. Overcast.12 mph80%29.88 "Hg6 mi
7:53 pm52 °FLight rain. Overcast.9 mph75%29.88 "Hg10 mi
6:53 pm52 °FOvercast.8 mph77%29.88 "Hg10 mi
Weather by CustomWeather, © 2020

See weather overview

Advertising